Tracking 19572 objects as of 24-Feb-2019
HD Live streaming from Space Station
objects crossing your sky now

COSMOS 620

Track COSMOS 620 now!
10-day predictions
COSMOS 620 is classified as:


NORAD ID: 6988
Int'l Code: 1973-104D
Perigee: 1,465.4 km
Apogee: 1,500.8 km
Inclination: 74.0 °
Period: 115.5 minutes
Semi major axis: 7854 km
RCS: 0.6997 m2 (medium)
Launch date: December 19, 1973
Source: Commonwealth of Independent States (former USSR) (CIS)
Launch site: PLESETSK MISSILE AND SPACE COMPLEX (PKMTR)
aabbcc
Your satellite tracking list
Your tracking list is empty




NASA's NSSDC Master Catalog

Two Line Element Set (TLE):
1  6988U 73104D   19054.78301841 -.00000016 +00000-0 -32277-5 0  9992
2  6988 074.0304 027.8213 0022558 322.1092 087.8938 12.47269735057196
Source of the keplerian elements: AFSPC